Location: Pedholt
(56.0260°N, 10.2097°E)
Time: 03:59:23
(UTC+00:00)

Transit 2A Rocket - Pass Details

Date: 31 July 2021
Orbit: 586 x 916 km, 66.7° (Epoch: 21 September)

Event Time Altitude Azimuth Distance (km) Brightness Sun altitude
Rises 19:44:32 0° 310° (NW) 3,120 11.9 -2.6°
Reaches altitude 10° 19:46:57 10° 319° (NW) 2,251 9.3 -2.9°
Maximum altitude 19:51:48 39° 28° (NNE) 1,180 6.2 -3.4°
Drops below altitude 10° 19:57:03 10° 96° (E) 2,452 7.1 -4.0°
Enters shadow 19:59:29 - 103° (ESE) 3,323 7.7 -4.2°
Sets 19:59:47 0° 104° (ESE) 3,432 - -4.3°
